EW5962 Weather Reports


time (UTC)temp
C
wind
direction
speed
KPH
gust
KPH
rain 1hr
cm
rain 24hr
cm
rain mn
cm
humidity
%
barometer
mb
20260502164009 12 347 0.0 11.3 0.00 0.00 0.00 50 1012.7
20260502163603 12 340 0.0 11.3 0.00 0.00 0.00 51 1013.0
20260502163006 12 323 0.0 11.3 0.00 0.00 0.00 52 1013.0
20260502162512 12 347 0.0 9.7 0.00 0.00 0.00 53 1012.9
20260502162106 12 20 0.0 4.8 0.00 0.00 0.00 56 1013.0
20260502161503 12 349 0.0 1.6 0.00 0.00 0.00 59 1012.8
20260502161011 12 323 0.0 1.6 0.00 0.00 0.00 56 1013.1
20260502160603 12 279 0.0 12.9 0.00 0.00 0.00 57 1013.1
20260502152103 11 337 0.0 3.2 0.00 0.00 0.00 59 1013.4
20260502151503 11 29 0.0 3.2 0.00 0.00 0.00 59 1013.5
20260502151010 11 294 0.0 0.0 0.00 0.00 0.00 57 1013.3
20260502150602 11 316 0.0 1.6 0.00 0.00 0.00 58 1013.4
20260502130503 11 313 0.0 0.0 0.00 0.00 0.00 69 1012.6
20260502123503 11 299 0.0 1.6 0.00 0.00 0.00 70 1011.9
20260502123024 11 339 0.0 0.0 0.00 0.00 0.00 72 1011.8
20260502122602 11 2 0.0 0.0 0.00 0.00 0.00 74 1011.9
20260502122104 11 1 0.0 0.0 0.00 0.00 0.00 72 1012.0
20260502121513 11 349 0.0 0.0 0.00 0.00 0.00 73 1012.2
20260502121018 11 308 0.0 0.0 0.00 0.00 0.00 74 1012.2
20260502120603 11 304 0.0 0.0 0.00 0.00 0.00 74 1012.2
20260502115603 11 351 0.0 0.0 0.00 0.00 0.00 75 1012.3
20260502115003 11 344 0.0 0.0 0.00 0.00 0.00 74 1012.2
20260502114510 11 352 0.0 0.0 0.00 0.00 0.00 76 1012.2
20260502114103 11 306 0.0 0.0 0.00 0.00 0.00 76 1011.9
20260502113503 11 9 0.0 0.0 0.00 0.00 0.00 80 1011.8
20260502113010 11 349 0.0 0.0 0.00 0.00 0.00 79 1011.9
20260502112603 11 349 0.0 0.0 0.00 0.00 0.00 80 1011.8
20260502112003 11 314 0.0 0.0 0.00 0.00 0.00 81 1011.8
20260502111509 11 311 0.0 0.0 0.00 0.00 0.00 82 1011.9
20260502111103 10 323 0.0 0.0 0.00 0.00 0.00 84 1011.8
20260502110503 10 349 0.0 0.0 0.00 0.00 0.00 87 1011.8
20260502110008 10 347 0.0 0.0 0.00 0.00 0.00 88 1011.7
20260502105603 10 347 0.0 0.0 0.00 0.00 0.00 88 1011.7
20260502105003 10 347 0.0 0.0 0.00 0.00 0.00 89 1011.7
20260502104515 10 3 0.0 0.0 0.00 0.00 0.00 90 1011.4
20260502104105 10 10 0.0 0.0 0.00 0.00 0.00 91 1011.3
20260502103503 10 8 0.0 0.0 0.00 0.00 0.00 92 1011.5
20260502103009 10 26 0.0 0.0 0.00 0.00 0.00 92 1011.5
20260502102604 10 25 0.0 0.0 0.00 0.00 0.00 91 1011.6
20260502102004 10 348 0.0 0.0 0.00 0.00 0.00 92 1011.6
20260502101511 10 348 0.0 0.0 0.00 0.00 0.00 92 1011.7
20260502101104 10 348 0.0 0.0 0.00 0.00 0.00 92 1011.6
20260502100503 10 348 0.0 0.0 0.00 0.00 0.00 92 1011.9
20260502091509 10 348 0.0 0.0 0.00 0.00 0.00 92 1012.3
20260502091106 10 348 0.0 0.0 0.00 0.00 0.00 92 1012.1
20260502090502 10 348 0.0 0.0 0.00 0.00 0.00 91 1012.1
20260502071509 10 348 0.0 0.0 0.00 0.00 0.00 90 1011.0
20260502071103 10 348 0.0 0.0 0.00 0.00 0.00 89 1011.0
20260502070502 10 348 0.0 0.0 0.00 0.00 0.00 89 1010.9
20260502070009 10 348 0.0 0.0 0.00 0.00 0.00 90 1010.9
20260502065603 10 348 0.0 0.0 0.00 0.00 0.00 89 1010.9
20260502065002 10 348 0.0 0.0 0.00 0.00 0.00 90 1011.0
20260502064516 10 348 0.0 1.6 0.00 0.00 0.00 90 1011.1
20260502064104 10 348 0.0 1.6 0.00 0.00 0.00 89 1011.0
20260502063503 10 51 0.0 4.8 0.00 0.00 0.00 90 1011.2
20260502063011 10 8 0.0 4.8 0.00 0.00 0.00 90 1011.5
20260502062603 10 304 0.0 0.0 0.00 0.00 0.00 90 1011.4
20260502062002 10 232 0.0 0.0 0.00 0.00 0.00 91 1011.2
20260502061509 10 231 0.0 0.0 0.00 0.00 0.00 91 1011.1
20260502061102 10 231 0.0 0.0 0.00 0.00 0.00 90 1011.0
20260502060503 10 231 0.0 0.0 0.00 0.00 0.00 90 1011.1
20260502060009 10 231 0.0 0.0 0.00 0.00 0.00 90 1011.1
20260502055604 10 231 0.0 0.0 0.00 0.00 0.00 90 1011.1
20260502055003 10 231 0.0 0.0 0.00 0.00 0.00 90 1011.2
20260502054508 10 231 0.0 0.0 0.00 0.00 0.00 90 1011.2
20260502054102 10 231 0.0 0.0 0.00 0.00 0.00 90 1011.2
20260502053503 10 231 0.0 0.0 0.00 0.00 0.00 90 1011.2
20260502053012 10 231 0.0 0.0 0.00 0.00 0.00 89 1011.2
20260502052605 10 231 0.0 0.0 0.00 0.00 0.00 89 1011.1
20260502052003 10 231 0.0 0.0 0.00 0.00 0.00 89 1011.2
20260502051508 10 231 0.0 0.0 0.00 0.00 0.00 89 1011.2
20260502051102 10 231 0.0 0.0 0.00 0.00 0.00 89 1011.3
20260502050504 10 231 0.0 0.0 0.00 0.00 0.00 89 1011.4
20260502050011 10 231 0.0 0.0 0.00 0.00 0.00 89 1011.4
20260502045604 10 231 0.0 0.0 0.00 0.00 0.00 89 1011.5
20260502045004 10 231 0.0 0.0 0.00 0.00 0.00 88 1011.4
20260502044509 10 231 0.0 0.0 0.00 0.00 0.00 88 1011.5
20260502044103 10 231 0.0 0.0 0.00 0.00 0.00 88 1011.6
20260502043502 10 231 0.0 0.0 0.00 0.00 0.00 88 1011.5
20260502043009 10 231 0.0 0.0 0.00 0.00 0.00 88 1011.5
20260502042603 10 231 0.0 0.0 0.00 0.00 0.00 87 1011.5
20260502042003 10 232 0.0 0.0 0.00 0.00 0.00 87 1011.5
20260502041516 10 231 0.0 0.0 0.00 0.00 0.00 87 1011.6
20260502041104 10 231 0.0 0.0 0.00 0.00 0.00 87 1011.5
20260502040512 10 231 0.0 0.0 0.00 0.00 0.00 86 1011.5
20260502040105 10 231 0.0 0.0 0.00 0.00 0.00 86 1011.7
20260502035502 10 231 0.0 0.0 0.00 0.00 0.00 86 1011.6
20260502035009 11 231 0.0 0.0 0.00 0.00 0.00 86 1011.8
20260502034603 11 231 0.0 0.0 0.00 0.00 0.00 85 1011.7
20260502034003 11 231 0.0 0.0 0.00 0.00 0.00 85 1011.7
20260502033508 11 231 0.0 0.0 0.00 0.00 0.00 85 1011.7
20260502033105 11 231 0.0 0.0 0.00 0.00 0.00 85 1011.8
20260502032504 11 231 0.0 0.0 0.00 0.00 0.00 84 1012.0
20260502032008 11 231 0.0 0.0 0.00 0.00 0.00 84 1011.9
20260502031603 11 231 0.0 0.0 0.00 0.00 0.00 84 1012.0
20260502031003 11 231 0.0 0.0 0.00 0.00 0.00 83 1012.0
20260502030509 11 231 0.0 0.0 0.00 0.00 0.00 83 1012.0
20260502025503 11 231 0.0 0.0 0.00 0.00 0.00 82 1011.9
20260502025008 11 231 0.0 0.0 0.00 0.00 0.00 82 1011.8
20260502024608 11 231 0.0 0.0 0.00 0.00 0.00 82 1011.9
20260502024003 11 231 0.0 0.0 0.00 0.00 0.00 82 1011.9
20260502023508 11 231 0.0 0.0 0.00 0.00 0.00 82 1012.0
20260502023103 11 231 0.0 0.0 0.00 0.00 0.00 81 1011.9
20260502022503 12 231 0.0 0.0 0.00 0.00 0.00 81 1011.9
20260502022015 12 231 0.0 0.0 0.00 0.00 0.00 80 1011.9
20260502021603 12 231 0.0 0.0 0.00 0.00 0.00 80 1011.9
20260502021003 12 231 0.0 0.0 0.00 0.00 0.00 81 1011.8
20260502020509 12 231 0.0 0.0 0.00 0.00 0.00 80 1011.9
20260502015504 12 231 0.0 0.0 0.00 0.00 0.00 80 1011.9
20260502015016 12 231 0.0 0.0 0.00 0.00 0.00 79 1012.1
20260502014604 12 231 0.0 0.0 0.00 0.00 0.00 79 1012.1
20260502014002 12 231 0.0 0.0 0.00 0.00 0.00 79 1012.2
20260502013508 12 231 0.0 0.0 0.00 0.00 0.00 78 1012.2
20260502013103 12 231 0.0 0.0 0.00 0.00 0.00 78 1012.1
20260502012502 13 231 0.0 0.0 0.00 0.00 0.00 78 1011.9
20260502012009 13 231 0.0 0.0 0.00 0.00 0.00 78 1011.9
20260502011603 13 231 0.0 0.0 0.00 0.00 0.00 77 1011.9
20260502011003 13 231 0.0 0.0 0.00 0.00 0.00 77 1011.8
20260502010511 13 231 0.0 0.0 0.00 0.00 0.00 77 1011.9
20260502005502 13 231 0.0 0.0 0.00 0.00 0.00 76 1011.6
20260502005009 13 231 0.0 0.0 0.00 0.00 0.00 76 1011.5
20260502004604 13 231 0.0 0.0 0.00 0.00 0.00 75 1011.4
20260502004003 13 231 0.0 0.0 0.00 0.00 0.00 75 1011.2
20260502003509 14 231 0.0 0.0 0.00 0.00 0.00 74 1011.0
20260502003102 14 231 0.0 0.0 0.00 0.00 0.00 74 1011.0
20260502002503 14 231 0.0 0.0 0.00 0.00 0.00 73 1011.0
20260502002008 14 231 0.0 0.0 0.00 0.00 0.00 73 1010.9
20260502001604 14 231 0.0 0.0 0.00 0.00 0.00 72 1010.9
20260502001002 14 231 0.0 0.0 0.00 0.00 0.00 72 1010.9
20260502000508 15 179 0.0 0.0 0.00 0.00 0.00 71 1010.7
20260502000105 15 179 0.0 0.0 0.00 0.00 0.00 71 1010.5
20260501235503 15 172 0.0 0.0 0.00 0.00 0.00 70 1010.5
20260501235008 15 149 0.0 0.0 0.00 0.00 0.00 69 1010.5
20260501234602 15 149 0.0 1.6 0.00 0.00 0.00 69 1010.4
20260501234004 15 182 0.0 1.6 0.00 0.00 0.00 68 1010.5
20260501233512 15 166 0.0 1.6 0.00 0.00 0.00 68 1010.5
20260501233106 15 164 0.0 1.6 0.00 0.00 0.00 67 1010.5
20260501232502 15 195 0.0 0.0 0.00 0.00 0.00 67 1010.7
20260501232009 16 190 0.0 1.6 0.00 0.00 0.00 66 1010.6
20260501231639 16 186 0.0 1.6 0.00 0.00 0.00 65 1010.6
20260501231003 16 183 0.0 1.6 0.00 0.00 0.00 65 1010.5
20260501230511 16 164 0.0 1.6 0.00 0.00 0.00 63 1010.4
20260501225503 16 200 0.0 0.0 0.00 0.00 0.00 62 1010.5
20260501225014 16 221 0.0 1.6 0.00 0.00 0.00 61 1010.6
20260501224611 16 219 0.0 1.6 0.00 0.00 0.00 61 1010.4
20260501224002 16 220 0.0 0.0 0.00 0.00 0.00 60 1010.4
20260501223508 16 218 0.0 0.0 0.00 0.00 0.00 58 1010.5
20260501223102 17 217 0.0 0.0 0.00 0.00 0.00 57 1010.5
20260501222502 17 202 0.0 1.6 0.00 0.00 0.00 58 1010.5
20260501222011 17 202 0.0 4.8 0.00 0.00 0.00 58 1010.6
20260501221612 17 233 0.0 4.8 0.00 0.00 0.00 58 1010.5
20260501221002 17 176 0.0 0.0 0.00 0.00 0.00 56 1010.4
20260501220508 17 176 0.0 0.0 0.00 0.00 0.00 56 1010.5
20260501215503 17 157 0.0 0.0 0.00 0.00 0.00 58 1010.6
20260501215009 17 180 0.0 0.0 0.00 0.00 0.00 57 1010.6
20260501214602 17 180 0.0 0.0 0.00 0.00 0.00 58 1010.7
20260501214002 17 176 0.0 0.0 0.00 0.00 0.00 57 1010.7
20260501213510 17 157 0.0 0.0 0.00 0.00 0.00 55 1010.8
20260501213111 17 203 0.0 1.6 0.00 0.00 0.00 55 1010.8
20260501212502 18 176 0.0 8.0 0.00 0.00 0.00 53 1010.8
20260501212008 18 182 0.0 8.0 0.00 0.00 0.00 54 1010.8
20260501211612 18 228 0.0 1.6 0.00 0.00 0.00 54 1010.7
20260501211003 18 192 0.0 1.6 0.00 0.00 0.00 54 1010.8
20260501210509 18 233 0.0 1.6 0.00 0.00 0.00 53 1010.6
20260501210104 18 163 0.0 1.6 0.00 0.00 0.00 52 1010.7
20260501205503 18 172 0.0 1.6 0.00 0.00 0.00 55 1010.6
20260501205009 18 214 0.0 1.6 0.00 0.00 0.00 54 1010.7
20260501204602 18 170 0.0 3.2 0.00 0.00 0.00 53 1010.7
20260501204002 18 204 0.0 1.6 0.00 0.00 0.00 53 1010.9
20260501203508 18 151 0.0 1.6 0.00 0.00 0.00 54 1010.9
20260501203105 18 188 0.0 11.3 0.00 0.00 0.00 53 1011.0
20260501202502 19 214 0.0 4.8 0.00 0.00 0.00 53 1011.0
20260501202010 19 226 0.0 4.8 0.00 0.00 0.00 51 1011.0
20260501201607 20 203 0.0 3.2 0.00 0.00 0.00 50 1011.1
20260501201002 20 162 0.0 9.7 0.00 0.00 0.00 48 1011.1
20260501200513 20 247 1.6 9.7 0.00 0.00 0.00 48 1011.2
20260501195503 20 183 0.0 3.2 0.00 0.00 0.00 51 1011.3
20260501195008 19 187 0.0 6.4 0.00 0.00 0.00 51 1011.4
20260501194609 19 169 0.0 6.4 0.00 0.00 0.00 49 1011.4
20260501194002 20 207 0.0 3.2 0.00 0.00 0.00 48 1011.6
20260501193508 20 185 0.0 3.2 0.00 0.00 0.00 50 1011.7
20260501193102 19 194 0.0 3.2 0.00 0.00 0.00 45 1011.8
20260501192504 19 182 0.0 8.0 0.00 0.00 0.00 49 1012.0
20260501192008 19 197 0.0 8.0 0.00 0.00 0.00 51 1012.0
20260501191602 19 169 0.0 1.6 0.00 0.00 0.00 49 1012.0
20260501191003 19 190 0.0 3.2 0.00 0.00 0.00 50 1012.2
20260501190509 19 219 0.0 3.2 0.00 0.00 0.00 49 1012.2
20260501185502 20 248 0.0 4.8 0.00 0.00 0.00 47 1012.4
20260501185013 20 227 0.0 0.0 0.00 0.00 0.00 47 1012.3
20260501184602 20 227 0.0 0.0 0.00 0.00 0.00 44 1012.4
20260501184002 20 188 0.0 3.2 0.00 0.00 0.00 47 1012.6
20260501183511 20 243 0.0 6.4 0.00 0.00 0.00 45 1012.6
20260501183102 20 330 0.0 6.4 0.00 0.00 0.00 45 1012.6
20260501182503 19 193 0.0 0.0 0.00 0.00 0.00 46 1012.6
20260501182008 18 356 0.0 6.4 0.00 0.00 0.00 45 1012.7
20260501181604 18 221 0.0 6.4 0.00 0.00 0.00 46 1013.0
20260501181002 19 215 0.0 0.0 0.00 0.00 0.00 44 1013.0
20260501180513 19 191 0.0 3.2 0.00 0.00 0.00 45 1013.0
20260501175503 18 314 0.0 6.4 0.00 0.00 0.00 44 1013.1
20260501175008 18 183 0.0 6.4 0.00 0.00 0.00 45 1013.0
20260501174605 18 220 0.0 3.2 0.00 0.00 0.00 45 1013.1
20260501174002 18 162 0.0 0.0 0.00 0.00 0.00 47 1013.1